Regional Weather Roundup
Issued by NWS

Home | Current Version | Previous Version | Text Only | Print | Product List | Glossary On
Versions: 1 2 3 4 5 6 7 8 9 10 11 12 13 14 15 16 17 18 19 20 21 22 23 24 25 26 27 28 29 30 31 32 33 34 35 36 37 38 39 40 41 42 43 44 45 46 47 48 49 50
000
ASUS43 KLOT 160906
RWRIL

ILLINOIS REGIONAL WEATHER ROUNDUP
NATIONAL WEATHER SERVICE CHICAGO/ROMEOVILLE IL
400 AM CDT WED APR 16 2014

NOTE: "FAIR" INDICATES FEW OR NO CLOUDS BELOW 12,000 FEET WITH NO
SIGNIFICANT WEATHER AND/OR OBSTRUCTIONS TO VISIBILITY.

* THESE STATIONS ARE NOT UNDER NWS QUALITY CONTROL. THEY ALSO MAY NOT
  REPORT WEATHER SUCH AS PRECIPITATION OR FOG.

ILZ001-002-007-009-015-016-024-161000-
NORTHWEST ILLINOIS

CITY           SKY/WX    TMP DP  RH WIND       PRES   REMARKS
MOLINE         CLEAR     32  21  64 SE12      30.15S WCI  23
STERLING*      CLEAR     30  21  69 SE7       30.18R WCI  23
SAVANNA*       PTCLDY    32  21  63 SE8       30.17R WCI  25
$$

ILZ003-004-008-010-011-017-018-161000-
NORTH CENTRAL ILLINOIS

CITY           SKY/WX    TMP DP  RH WIND       PRES   REMARKS
ROCKFORD       PTCLDY    30  21  69 SE9       30.21S WCI  22
FREEPORT*      CLEAR     29  24  83 SE8       30.19S WCI  21
ROCHELLE*      CLEAR     30  25  79 SE10      30.20S WCI  21
DE KALB*       CLEAR     27  22  79 SE9       30.21S WCI  18
$$

ILZ005-006-012>014-019>023-161000-
NORTHEAST ILLINOIS

CITY           SKY/WX    TMP DP  RH WIND       PRES   REMARKS
CHICAGO-OHARE  PTCLDY    26  18  71 S8        30.23S WCI  18
CHICAGO-MIDWAY CLEAR     31  21  66 S8        30.25R WCI  23
AURORA         CLEAR     27  21  78 SE7       30.23S WCI  19
LANSING*       CLEAR     27  19  71 S6        30.27R WCI  21
WAUKEGAN       CLOUDY    29  21  72 S7        30.23R WCI  22
DUPAGE AIRPORT CLEAR     27  20  75 S6        30.22S WCI  20
KANKAKEE*      CLEAR     29  23  79 SE7       30.27S WCI  22
WHEELING       CLOUDY    28  22  78 S5        30.24F WCI  23
MORRIS*        CLEAR     30  22  72 SE7       30.23S WCI  23
NORTHERLY ISL    N/A     33  20  59 S9          N/A  WCI  25
$$

LMZ740>746-161000-
SOUTHERN LAKE MICHIGAN

STATION/POSITION SKY/WX   TEMP    WIND        PRES    VSBY  WAVE
                          AIR SEA DIR/SP/G                  HT/PER
                          (F)     (DEG/KT/KT) (MB)    (MI)  (FT/S)
WAUKEGAN HARBOR            34     200/ 11/ 13 1024.7S
HARRISON CRIB              34     190/ 16/ 18   N/A
BURNHAM HARBOR             32     180/  7/ 10   N/A
CALUMET HARBOR             31     160/  6/  8 1025.3S
MICHIGAN CITY              30     130/  8/ 11   N/A
$$

ILZ025>027-034>036-040-047-049-050-058-095>099-161000-
WEST-CENTRAL ILLINOIS

CITY           SKY/WX    TMP DP  RH WIND       PRES   REMARKS
QUINCY         CLEAR     37  22  54 S13       30.12S WCI  29
GALESBURG*     CLEAR     32  25  76 SE7       30.14F WCI  26
MACOMB*        CLEAR     33  26  75 SE12      30.17S WCI  24
JACKSONVILLE*  CLEAR     35  25  67 SE10      30.20S WCI  27
PITTSFIELD*    CLEAR     35  27  72 SE9       30.18S WCI  27
$$

ILZ028>032-037-038-041>044-048-051>054-059>061-161000-
CENTRAL ILLINOIS

CITY           SKY/WX    TMP DP  RH WIND       PRES   REMARKS
PONTIAC        CLEAR     32  27  80 SE9       30.24R WCI  24
BLOOMINGTON    CLEAR     28  21  75 S12       30.23S WCI  18
DECATUR        CLEAR     32  24  72 S8        30.24R WCI  25
PEORIA         CLEAR     34  22  61 SE9       30.20S WCI  27
LACON*         CLEAR     32  23  70 SE8       30.20S WCI  24
LINCOLN*       CLEAR     32  27  82 S7        30.24R WCI  25
SPRINGFIELD    PTCLDY    36  24  62 S14       30.22R WCI  27
TAYLORVILLE    CLEAR     32  25  74 SE9       30.24R WCI  24
$$

ILZ033-039-045-046-055>057-062-063-161000-
EAST-CENTRAL ILLINOIS

CITY           SKY/WX    TMP DP  RH WIND       PRES   REMARKS
CHAMPAIGN      CLEAR     30  25  81 SE8       30.26R WCI  22
RANTOUL*       CLEAR     31  26  82 CALM      30.27R
MATTOON        CLEAR     31  23  72 SE8       30.26R WCI  23
PARIS*         CLEAR     31  25  78 SE6       30.29S WCI  25
$$

ILZ079-100>102-161000-
SOUTHWEST ILLINOIS

CITY           SKY/WX    TMP DP  RH WIND       PRES   REMARKS
ALTON          PTCLDY    35  23  62 SE6       30.23S WCI  30
BELLEVILLE     MOCLDY    34  26  72 SE8       30.24R WCI  27
CAHOKIA*       MOCLDY    36  25  64 SE6       30.23S WCI  31
SPARTA*        MOCLDY    34  27  75 SE6       30.26R WCI  29
$$

ILZ064>066-069>071-074>076-080>082-084>086-088>090-092>094-161000-
SOUTH-CENTRAL ILLINOIS

CITY           SKY/WX    TMP DP  RH WIND       PRES   REMARKS
CARBONDALE     PTCLDY    33  25  72 SE7       30.27R WCI  27
CAIRO*         CLEAR     39  28  64 SE8       30.28S WCI  33
MARION         PTCLDY    36  25  64 SE6       30.28S WCI  31
MT. VERNON     MOCLDY    34  18  51 SE6       30.27F WCI  29
CENTRALIA*       N/A     35  24  65 SE8       30.26R WCI  28
SALEM*         MOCLDY    37  26  64 SE5       30.26S WCI  33
METROPOLIS*    CLEAR     31  27  86 E3        30.28S
$$

ILZ067-068-072-073-078-083-087-091-161000-
SOUTHEAST ILLINOIS

CITY           SKY/WX    TMP DP  RH WIND       PRES   REMARKS
FLORA*         CLEAR     31  27  86 SE5       30.28S WCI  26
FAIRFIELD*     PTCLDY    36  28  75 SE3       30.28S
HARRISBURG*    CLEAR     33  31  92 SE3       30.30S
ROBINSON*      CLEAR     32  28  83 SE7       30.32R WCI  26
CARMI*         CLEAR     37  32  82 SE7       30.29S WCI  31
$$

ABBREVIATIONS USED IN REMARKS
   TC - TEMPERATURE IN CELSIUS
  WCI - WIND CHILL INDEX
   HX - HEAT INDEX
  VSB - VISIBILITY
$$




USA.gov is the U.S. government's official web portal to all federal, state and local government web resources and services.